"Pseudo-MPEC" for C9J4J02

Created 2023 Sep 20 17:22:15 UT using Find_Orb

Click here for an explanation of pseudo-MPECs

 
 Astrometry: 
     C9J4J02*1C2023 09 19.34125002 01 12.551+06 15 47.59   ~9J8q 20.77GVNEOCPG96
     C9J4J02 1C2023 09 19.34644702 01 12.090+06 15 49.75   ~9J8q 21.91GVNEOCPG96
     C9J4J02 1C2023 09 19.35164302 01 11.690+06 15 51.95   ~9J8q 22.01GVNEOCPG96
     C9J4J02 1C2023 09 19.35684202 01 11.219+06 15 54.97   ~9J8q 21.89GVNEOCPG96
     C9J4J02 KC2023 09 19.45446202 01 03.050+06 16 51.38   ~9JBM 22.04GVNEOCPV06
     C9J4J02 KC2023 09 19.45632302 01 02.881+06 16 52.46   ~9JBM 22.20GVNEOCPV06
     C9J4J02 KC2023 09 19.45818302 01 02.737+06 16 53.58   ~9JBM 21.93GVNEOCPV06
     C9J4J02 KC2023 09 201PGtc-ms:+j\Ao#VC_\TBAstrometry$m(nT:redacted;)=8;m.H21
     C9J4J02 KC2023 09 20gqJ5k@5!b^$r'=T6:2)clickB^6dUO%7uD/yYTSC?;'wg/:vET.(H21
     C9J4J02 KC2023 09 20Qi@gSup2x.aBqa!%%.Hx$Ouk^ig]xP@Os`pL\A8Z)SV:1%s?'KCVH21
     C9J4J02 KC2023 09 20.31502601 59 52.717+06 25 04.33   ~9K87 22.03GVNEOCPV06
     C9J4J02 KC2023 09 20.31741001 59 52.508+06 25 05.59   ~9K87 22.38GVNEOCPV06
     C9J4J02 KC2023 09 20.31979201 59 52.300+06 25 07.10   ~9K87 22.14GVNEOCPV06
     C9J4J02 KC2023 09 20.32217201 59 52.069+06 25 08.44   ~9K87 22.23GVNEOCPV06
     C9J4J02  C2023 09 20F5ojVRh,herer=for%Yg+o.w)7Q_kEpp?iwj3.k#[2U#?(@x;a^0F52
     C9J4J02  C2023 09 20p59-fxyfHI+7!O$/tZfUmA2f#RnV(dlAK2s$xu()g)3kl-X=sSO9F52
     C9J4J02  C2023 09 201\WOexplanationP4XnS?l'xkNica5UI;gfhto'+Q85[LGO,Iy'GF52

Station data:
(F52) Pan-STARRS 2, Haleakala  (N20.707382 W156.255910)  US/Hawaii.
   Observers J. Bulger, T. Dukes, T. Lowe, A. Schultz, M. Willman. Measurers
   K. Chambers, S. Chastel, T. de Boer, L. Denneau, J. Fairlamb, H.
   Flewelling, M. Huber, C.-C. Lin, E. Magnier, Y. Ramanjooloo, R. Wainscoat,
   R. Weryk. 1.8-m Ritchey-Chrétien + CCD.
(G96) Mt. Lemmon Survey  (N32.442751 W110.788720)  US/Arizona.  Observer E.
   J. Christensen. 1.5-m reflector + 10K CCD.
(H21) Astronomical Research Observatory, Westfield  (N39.483054 W87.968270)
   US/Illinois.  Observer R. Holmes. Measurers S. Foglia, L. Buzzi, T.
   Linder, R. Holmes. 0.76-m f/3.0 astrograph + CCD0.81-m f/4.0 astrograph +
   CCD0.61-m f/4.5 astrograph + CCD0.40-m f/5.32 astrograph + CCD.
(V06) Catalina Sky Survey-Kuiper  (N32.416844 W110.732550)  US/Arizona.
   Observers T. A. Pruyne, B. M. Africano, E. J. Christensen, G. A. Farneth,
   D. C. Fuls, A. R. Gibbs, A. D. Grauer, H. Gröller, J. A. Johnson, R. A.
   Kowalski, S. M. Larson, G. J. Leonard, D. Rankin, R. L. Seaman, F. C.
   Shelly, K. W. Wierzchoś. 1.55-m reflector + CCD.

Orbital elements:  C9J4J02
   Perihelion 2023 May 4.18143 +/- 245 TT =  4:21:15 (JD 2460068.68143)
Epoch 2023 Sep 20.0 TT = JDT 2460207.5   Earth MOID: 0.7259      AutoNEOCP
M  12.27639175 +/- 80               (J2000 ecliptic)
n   0.08843479 +/- 0.0681           Peri.  276.68536 +/- 80
a   4.98946445 +/- 2.56             Node    20.87992 +/- 0.6
e   0.7077177 +/- 0.177             Incl.   28.90871 +/- 11
P  11.15                   H 19.20  G  0.15   U 11.0  SR
q 1.45833181 +/- 0.379    Q 8.52059709 +/- 1.62
From 17 observations 2023 Sept. 19-20 (27.0 hr); mean residual 0".34
Residuals in arcseconds: 
230919 G96  .10+  1.2+    230919 V06  .01+  .15-    230920 V06  .44+  .07-    
230919 G96  .28-  .35+    230920 H21  .72+  .23-    230920 V06  .02+  .09-    
230919 G96  .24+  .45-    230920 H21  .10+  .17-    230920 F52  .14-  .08-    
230919 G96  .29-  .43-    230920 H21  .11+  .08-    230920 F52  .12+  .01-    
230919 V06  .03+  .22-    230920 V06  .61+  .11-    230920 F52  .32-  .23+    
230919 V06  .16-  .20-    230920 V06  .52+  .22-    

Ephemerides (geocentric):
Date (UTC) HH   RA             Dec           delta  r     elong  mag " sig PA
---- --------  ------------   ------------  ------ ------ -----  --- --------
2023 09 20 17  01 59 19.781   +06 28 51.27  1.2357 2.1474 146.7 22.1 1.76  76
2023 09 20 18  01 59 16.303   +06 29 14.90  1.2358 2.1477 146.8 22.1 1.97  76
2023 09 20 19  01 59 12.822   +06 29 38.53  1.2358 2.1480 146.8 22.1 2.20  77
2023 09 20 20  01 59 09.338   +06 30 02.14  1.2358 2.1483 146.9 22.1 2.45  77
2023 09 20 21  01 59 05.852   +06 30 25.74  1.2359 2.1486 146.9 22.1 2.71  77
2023 09 20 22  01 59 02.363   +06 30 49.33  1.2359 2.1489 147.0 22.1 2.98  77
2023 09 20 23  01 58 58.872   +06 31 12.91  1.2359 2.1493 147.1 22.1 3.27  77
2023 09 21 00  01 58 55.378   +06 31 36.47  1.2360 2.1496 147.1 22.1 3.57  77
2023 09 21 01  01 58 51.882   +06 32 00.03  1.2360 2.1499 147.2 22.1 3.88  77
2023 09 21 02  01 58 48.383   +06 32 23.57  1.2360 2.1502 147.2 22.1 4.21  77
2023 09 21 03  01 58 44.881   +06 32 47.11  1.2361 2.1505 147.3 22.1 4.55  77
2023 09 21 04  01 58 41.377   +06 33 10.63  1.2361 2.1508 147.3 22.1 4.90  76
2023 09 21 05  01 58 37.870   +06 33 34.14  1.2362 2.1511 147.4 22.1 5.26  76
2023 09 21 06  01 58 34.361   +06 33 57.63  1.2362 2.1514 147.4 22.1 5.64  76
2023 09 21 07  01 58 30.849   +06 34 21.12  1.2362 2.1518 147.5 22.1 6.03  76
2023 09 21 08  01 58 27.334   +06 34 44.59  1.2363 2.1521 147.5 22.1 6.43  76
2023 09 21 09  01 58 23.817   +06 35 08.06  1.2363 2.1524 147.6 22.1 6.85  75
2023 09 21 10  01 58 20.298   +06 35 31.51  1.2364 2.1527 147.6 22.1 7.28  75
2023 09 21 11  01 58 16.776   +06 35 54.95  1.2364 2.1530 147.7 22.1 7.72  75
2023 09 21 12  01 58 13.251   +06 36 18.38  1.2364 2.1533 147.7 22.1 8.17  75
2023 09 21 13  01 58 09.724   +06 36 41.80  1.2365 2.1536 147.8 22.1 8.64  75
2023 09 21 14  01 58 06.194   +06 37 05.20  1.2365 2.1540 147.8 22.1 9.11  75
2023 09 21 15  01 58 02.662   +06 37 28.60  1.2366 2.1543 147.9 22.1 9.60  74
2023 09 21 16  01 57 59.128   +06 37 51.98  1.2366 2.1546 148.0 22.1 10.1  74
2023 09 21 17  01 57 55.591   +06 38 15.35  1.2366 2.1549 148.0 22.1 10.6  74
2023 09 21 18  01 57 52.051   +06 38 38.71  1.2367 2.1552 148.1 22.1 11.2  74
2023 09 21 19  01 57 48.509   +06 39 02.06  1.2367 2.1555 148.1 22.1 11.7  74
2023 09 21 20  01 57 44.965   +06 39 25.39  1.2368 2.1558 148.2 22.1 12.2  74
2023 09 21 21  01 57 41.418   +06 39 48.72  1.2368 2.1562 148.2 22.1 12.8  74
2023 09 21 22  01 57 37.868   +06 40 12.03  1.2369 2.1565 148.3 22.1 13.4  73
2023 09 21 23  01 57 34.316   +06 40 35.33  1.2369 2.1568 148.3 22.1 14.0  73
2023 09 22 00  01 57 30.762   +06 40 58.62  1.2370 2.1571 148.4 22.1 14.6  73
2023 09 22 01  01 57 27.205   +06 41 21.90  1.2370 2.1574 148.4 22.1 15.2  73
2023 09 22 02  01 57 23.646   +06 41 45.17  1.2371 2.1577 148.5 22.1 15.8  73
2023 09 22 03  01 57 20.084   +06 42 08.42  1.2371 2.1580 148.5 22.1 16.5  73
2023 09 22 04  01 57 16.520   +06 42 31.67  1.2371 2.1583 148.6 22.1 17.1  73
2023 09 22 05  01 57 12.954   +06 42 54.90  1.2372 2.1587 148.6 22.1 17.8  73
2023 09 22 06  01 57 09.385   +06 43 18.12  1.2372 2.1590 148.7 22.1 18.5  73
2023 09 22 07  01 57 05.814   +06 43 41.33  1.2373 2.1593 148.8 22.1 19.2  73
2023 09 22 08  01 57 02.240   +06 44 04.52  1.2373 2.1596 148.8 22.1 19.9  73
2023 09 22 09  01 56 58.664   +06 44 27.71  1.2374 2.1599 148.9 22.1 20.6  73
2023 09 22 10  01 56 55.086   +06 44 50.88  1.2374 2.1602 148.9 22.1 21.3  72
2023 09 22 11  01 56 51.505   +06 45 14.04  1.2375 2.1605 149.0 22.1 22.1  72
2023 09 22 12  01 56 47.922   +06 45 37.19  1.2375 2.1609 149.0 22.1 22.8  72
2023 09 22 13  01 56 44.337   +06 46 00.33  1.2376 2.1612 149.1 22.1 23.6  72
2023 09 22 14  01 56 40.749   +06 46 23.46  1.2376 2.1615 149.1 22.1 24.4  72
2023 09 22 15  01 56 37.159   +06 46 46.57  1.2377 2.1618 149.2 22.1 25.2  72
2023 09 22 16  01 56 33.566   +06 47 09.68  1.2378 2.1621 149.2 22.1 26.0  72